Location: *
(24.1434°N, 56.8729°E)
Time: 09:02:17
(UTC+00:00)

Meteor 1-13 Rocket - Pass Details

Date: 09 April 2020
Orbit: 830 x 912 km, 81.3° (Epoch: 29 May)

Event Time Altitude Azimuth Distance (km) Brightness Sun altitude
Exits shadow 23:41:13 62° 2° (N) 974 4.5 -30.1°
Drops below altitude 10° 23:45:52 10° 6° (N) 2,496 7.0 -29.1°
Sets 23:48:16 0° 7° (N) 3,423 7.8 -28.6°
